Regional Weather Roundup
Issued by NWS

Home | Current Version | Previous Version | Graphics & Text | Print | Product List | Glossary On
Versions: 1 2 3 4 5 6 7 8 9 10 11 12 13 14 15 16 17 18 19 20 21 22 23 24 25 26 27 28 29 30 31 32 33 34 35 36 37 38 39 40 41 42 43 44 45 46 47 48 49 50
184
ASUS44 KLIX 261101
RWRLA
LOUISIANA WEATHER ROUNDUP
NATIONAL WEATHER SERVICE NEW ORLEANS LA
500 AM CST WED NOV 26 2014

NOTE: "FAIR" INDICATES FEW OR NO CLOUDS BELOW 12,000 FEET WITH NO
      SIGNIFICANT WEATHER AND/OR OBSTRUCTIONS TO VISIBILITY.
      SKY/WX - SKY CONDITION AND SIGNIFICANT WEATHER.
      TMP - AIR TEMPERATURE.    DP   - DEWPOINT TEMPERATURE.
      RH  - RELATIVE HUMIDITY.  PRES - PRESSURE.
      HX  - HEAT INDEX.         WCI  - WIND CHILL INDEX.

*  THESE STATIONS ARE NOT NWS OR FAA STATIONS AND ARE NOT UNDER
   NWS QUALITY CONTROL.

LAZ040-048-061>063-065-066-069-261200-
SOUTHEAST LOUISIANA

CITY           SKY/WX    TMP DP  RH WIND       PRES   REMARKS
N.O. AUDUBON   NOT AVBL
N.O. INTL ARPT CLEAR     40  35  83 CALM      30.23R
N.O. LAKEFRONT CLEAR     48  36  63 N5        30.23R
N.O. DOWNTOWN* FAIR      46  34  61 CALM      30.23R
SLIDELL        CLEAR     31  28  89 CALM      30.22R
BATON ROUGE    CLEAR     31  29  92 CALM      30.22R
BOOTHVILLE     CLEAR     48  35  60 N7        30.23R
BELLE CHASSE   CLEAR     34  30  85 CALM      30.23R
BOGALUSA*        N/A     32  29  90 CALM      30.23R
NEW ROADS*     NOT AVBL
GONZALES*      NOT AVBL
HAMMOND*       NOT AVBL
HOUMA*         CLEAR     33  33  98 CALM      30.23S FOG
PORT FOURCHON* NOT AVBL

$$

LAZ041-044-053-054-261200-
SOUTHWEST LOUISIANA

CITY           SKY/WX    TMP DP  RH WIND       PRES   REMARKS
LAKE CHARLES   CLEAR     39  38  96 CALM      30.20F
LAFAYETTE      CLEAR     38  35  89 CALM      30.21F FOG
PATTERSON      CLEAR     34  34 100 CALM        N/A
SALT POINT       N/A     47  40  76 CALM      30.22R
NEW IBERIA     CLEAR     36  33  89 CALM      30.22S
CHENAULT AIRPK NOT AVBL

$$

LAZ027-028-261200-
CENTRAL LOUISIANA

CITY           SKY/WX    TMP DP  RH WIND       PRES   REMARKS
FORT POLK      CLEAR     41  36  84 S2        30.18F
ALEXANDRIA INT CLEAR     38  34  85 S3        30.17F
ALEXANDRIA     CLEAR     32  30  92 CALM      30.18F

$$

LAZ001-002-261200-
NORTHWEST LOUISIANA

CITY           SKY/WX    TMP DP  RH WIND       PRES   REMARKS
SHREVEPORT     PTCLDY    42  33  70 S7        30.11F
BARKSDALE AFB  CLEAR     36  33  88 SE7       30.12F WCI  30
DTN SHREVEPORT CLEAR     42  32  67 S6        30.12F

$$

LAZ014-016-261200-
NORTHEAST LOUISIANA

CITY           SKY/WX    TMP DP  RH WIND       PRES   REMARKS
MONROE         CLEAR     35  33  92 S3        30.17S
TALLULAH       MOCLDY    32  30  92 CALM      30.18F

$$




USA.gov is the U.S. government's official web portal to all federal, state and local government web resources and services.